STARLINK-11254, 60731

Orbit data source: Space-Track

STARLINK-11254, 60731 is a payload satellite owned by SpaceX/Seattle (US) in LEO that was launched on Wed, 28 Aug 2024 UTC via an FALCON 9 launch vehicle from the Air Force Eastern Test Range (AFETR). Payload-class satellites include a variety of spacecraft equipped with specific instruments for various scientific and technological missions. These include communications satellites like Starlink; space stations such as the ISS; scientific satellites like the Hubble; Earth observation satellites from companies like Planet Labs, Umbra, and HawkEye 360; GPS; miniature CubeSats for education and research; and military/defense satellites.

Loading next visibility...
Identifier
60731, 2024-152M
Orbit
LEO
Last TLE update
20 hours ago
Origin
Manufacturer
SpaceX/Seattle
Mission
Operational Commercial Communications
Bus & Motor
STARLINK V2M, Unknown motor
Mass
730 kg wet, ~700 kg dry
Launch date (UTC)
2024-08-28 (10 months ago)
Launch vehicle
FALCON 9
Launch site
Air Force Eastern Test Range (AFETR)
Object type
Payload
Rocket body
Debris
Shape & HBR
Box + 2 Pan, 29 m
Radar Cross Section
36.964 m², Large (>1 m²)

Expand to show TLE details & history

TLE from 20 hours ago
0 STARLINK-11254
1 60731U 24152M   25181.58718929 -.00000562  00000-0  21129-6 0  9992
2 60731  53.1588 278.7248 0000705  96.1092 264.0006 15.69712509 49259
Epoch: 2025-06-30T14:05Z
TLE epoch observation values (Epoch: 2025-06-30T14:05:33.154Z)
Latitude
-0.00005°
Longitude
148.44176°
Altitude
360.684 km
Speed
7.694 km/s
True Right ascension
18h 34m 53s
True Declination
0° 00' 00"
Sunlit
Object was in full shadow at epoch
Visualization orbit readout
Latitude
-5.75806°
Longitude
140.0581°
Altitude
361.691 km
Speed
7.693 km/s
Apparent Right ascension
14h 56m 50s
Apparent Declination
-41° 05' 41"
Sunlit
Object is in full shadow
Visualization observer readout
Local Sidereal Time
21:33:58
Azimuth
240.19° WSW
Elevation
-30.999°
Doppler factor
1
Orbital elements
Apogee altitude
360.455 km
Perigee altitude
359.505 km
Semi-major axis
6,738.117 km
Eccentricity
0.00007
Inclination
53.1588°
RAAN
278.7248°
Arg. of periapsis
96.1092°
True anomaly
Unknown
Mean anomaly
264.0006°
Eccentric anomaly
Unknown
Mean motion
3.92406 °/min
Orbital period
91.74 mins
BSTAR
2.1129e-7
Loading maneuver chart data...
Loading SW <> Apogee altitude chart data...
Loading historical data...
Loading historical data...
Loading historical data...
Loading historical data...
Loading historical data...
Loading historical data...
Loading historical data...

STARLINK-11254 Visibility forecast

Observer location: undefined°, undefined°

Span
Click to sort rows by Start time (UTC) header in descending order
Start Az.
Max El. time (UTC)
Max El. Az.
Max El.
End time (UTC)
End Az.
4 mins2025-07-01 10:11:36.882Z283.8° WNW2025-07-01 10:13:36.882Z340.405° N21.415°2025-07-01 10:15:36.882Z24.801° NE
5 mins2025-07-02 09:04:36.882Z243.365° WSW2025-07-02 09:06:36.882Z302.607° NW40.642°2025-07-02 09:09:36.882Z43.557° NE
|